This is the latest recevied weather packets stored in our database for station/object KD0RIH. If no packets are shown the sender has not sent any weather packets the latest 10 day(s).
| Time | Temp. | Humidity | Pressure | Rain* | Wind** | Luminosity | Snow |
|---|---|---|---|---|---|---|---|
| 1777813865 | 12.78° C | 50% | 1013.3 hPa | 0 mm | - | 123 W/m² | - |
| 1777813563 | 12.78° C | 50% | 1013.6 hPa | 0 mm | - | 198 W/m² | - |
| 1777813261 | 12.78° C | 51% | 1013.9 hPa | 0 mm | - | 113 W/m² | - |
| 1777812958 | 12.78° C | 51% | 1013.8 hPa | 0 mm | - | 221 W/m² | - |
| 1777812655 | 12.22° C | 50% | 1013.8 hPa | 0 mm | - | 162 W/m² | - |
| 1777812351 | 12.22° C | 51% | 1013.9 hPa | 0 mm | - | 196 W/m² | - |
| 1777812050 | 12.22° C | 52% | 1013.6 hPa | 0 mm | - | 167 W/m² | - |
| 1777811748 | 11.67° C | 52% | 1013.9 hPa | 0 mm | - | 159 W/m² | - |
| 1777811444 | 11.67° C | 52% | 1014.2 hPa | 0 mm | - | 142 W/m² | - |
| 1777811141 | 11.11° C | 54% | 1014.2 hPa | 0 mm | - | 114 W/m² | - |
| 1777810838 | 11.11° C | 55% | 1014.1 hPa | 0 mm | - | 101 W/m² | - |
| 1777810535 | 10.56° C | 56% | 1014.1 hPa | 0 mm | - | 86 W/m² | - |
| 1777810231 | 10.56° C | 57% | 1014.3 hPa | 0 mm | - | 75 W/m² | - |
| 1777809927 | 10° C | 58% | 1014.2 hPa | 0 mm | - | 59 W/m² | - |
| 1777809626 | 10° C | 58% | 1014.1 hPa | 0 mm | - | 46 W/m² | - |
| 1777809323 | 10° C | 59% | 1014.3 hPa | 0 mm | - | 51 W/m² | - |
| 1777809020 | 9.44° C | 59% | 1014.4 hPa | 0 mm | - | 46 W/m² | - |
| 1777808718 | 9.44° C | 60% | 1014.4 hPa | 0 mm | - | 32 W/m² | - |
| 1777808414 | 9.44° C | 60% | 1014.4 hPa | 0 mm | - | 24 W/m² | - |
| 1777808113 | 8.89° C | 60% | 1014.1 hPa | 0 mm | - | 18 W/m² | - |
| 1777807810 | 8.89° C | 61% | 1014.7 hPa | 0 mm | - | 13 W/m² | - |
| 1777807508 | 8.89° C | 62% | 1014.2 hPa | 0 mm | - | 10 W/m² | - |
| 1777807204 | 8.89° C | 61% | 1014.3 hPa | 0 mm | - | 7 W/m² | - |
| 1777806901 | 8.89° C | 61% | 1014.3 hPa | 0 mm | - | 4 W/m² | - |
| 1777806597 | 8.89° C | 61% | 1014 hPa | 0 mm | - | 2 W/m² | - |
* Rain latest hour (hover to see other rain measurements)
** Current wind speed in m/s (hover to see current wind gust speed)